EW7678 Weather Reports


Display with metric or nautical units.
time (UTC)temp
F
wind
direction
speed
MPH
gust
MPH
rain 1hr
in
rain 24hr
in
rain mn
in
humidity
%
barometer
mb
20260507043101 58 103 0.0 0.0 0.00 0.03 0.03 81 1009.6
20260507041554 60 103 0.0 2.0 0.00 0.03 0.03 77 1009.5
20260507040047 61 128 0.0 2.0 0.00 0.03 0.03 75 1009.5
20260507034549 62 330 0.0 3.0 0.00 0.03 0.03 75 1009.4
20260507033047 62 83 0.0 3.0 0.00 0.03 0.03 72 1009.2
20260507031549 62 109 0.0 2.0 0.00 0.03 0.03 74 1008.9
20260507030046 61 271 0.0 3.0 0.00 0.03 0.03 77 1008.7
20260507024551 62 265 0.0 1.0 0.00 0.03 0.03 75 1008.7
20260507023101 61 253 0.0 6.0 0.00 0.03 0.03 78 1008.7
20260507021548 60 278 0.0 1.0 0.02 0.03 0.03 84 1008.6
20260507020051 62 294 0.0 1.0 0.03 0.03 0.03 77 1008.0
20260507014544 62 325 0.0 2.0 0.03 0.03 0.03 76 1007.7
20260507013044 63 107 1.0 6.0 0.03 0.03 0.03 74 1007.5
20260507011546 64 217 3.0 5.0 0.01 0.01 0.01 64 1008.6
20260507010142 67 231 4.0 10.0 0.00 0.00 0.00 59 1008.5
20260507004541 74 233 4.0 10.0 0.00 0.00 0.00 39 1007.9
20260507003038 76 221 0.0 8.0 0.00 0.00 0.00 33 1006.5
20260507001605 78 278 0.0 1.0 0.00 0.00 0.00 37 1005.9
20260507000042 80 255 0.0 1.0 0.00 0.00 0.00 29 1005.7
20260506234536 81 153 0.0 2.0 0.00 0.00 0.00 27 1005.9
20260506233036 83 77 0.0 4.0 0.00 0.00 0.00 27 1005.9
20260506231534 83 263 0.0 4.0 0.00 0.00 0.00 26 1006.1
20260506230049 84 79 1.0 4.0 0.00 0.00 0.00 25 1006.4
20260506224529 84 115 0.0 3.0 0.00 0.00 0.00 25 1006.7
20260506223030 83 338 1.0 3.0 0.00 0.00 0.00 25 1007.0
20260506221520 82 118 1.0 4.0 0.00 0.00 0.00 25 1007.3
20260506220016 81 98 1.0 4.0 0.00 0.00 0.00 32 1007.7
20260506214513 80 116 1.0 3.0 0.00 0.00 0.00 33 1007.9
20260506213011 82 230 0.0 2.0 0.00 0.00 0.00 29 1008.1
20260506211507 81 215 1.0 3.0 0.00 0.00 0.00 28 1008.3
20260506210007 81 227 1.0 3.0 0.00 0.00 0.00 30 1008.5
20260506204501 81 68 0.0 3.0 0.00 0.00 0.00 31 1008.7
20260506203121 79 97 1.0 5.0 0.00 0.00 0.00 32 1008.9
20260506201554 77 134 1.0 5.0 0.00 0.00 0.00 33 1009.2
20260506200055 76 145 0.0 4.0 0.00 0.00 0.00 35 1009.4
20260506194547 76 106 1.0 4.0 0.00 0.00 0.00 35 1009.8
20260506193046 74 114 1.0 4.0 0.00 0.00 0.00 37 1010.0
20260506191539 72 148 1.0 3.0 0.00 0.00 0.00 38 1010.1
20260506190035 70 119 0.0 3.0 0.00 0.00 0.00 41 1010.4
20260506184538 70 122 1.0 3.0 0.00 0.00 0.00 41 1010.5
20260506183031 69 113 1.0 4.0 0.00 0.00 0.00 42 1010.6
20260506181538 69 129 1.0 3.0 0.00 0.00 0.00 42 1010.9
20260506180029 69 27 0.0 3.0 0.00 0.00 0.00 42 1011.1
20260506174533 68 106 0.0 2.0 0.00 0.00 0.00 43 1011.2
20260506173028 69 48 0.0 3.0 0.00 0.00 0.00 41 1011.3
20260506171527 68 263 0.0 1.0 0.00 0.00 0.00 39 1011.4
20260506170026 67 324 0.0 2.0 0.00 0.00 0.00 42 1011.6
20260506164537 66 106 0.0 2.0 0.00 0.00 0.00 47 1011.7
20260506163014 65 96 0.0 3.0 0.00 0.00 0.00 49 1011.9
20260506161512 64 126 0.0 2.0 0.00 0.00 0.00 48 1011.9
20260506160009 63 85 0.0 1.0 0.00 0.00 0.00 46 1011.9
20260506154506 63 108 0.0 1.0 0.00 0.00 0.00 46 1012.0
20260506153001 61 121 0.0 1.0 0.00 0.00 0.00 53 1012.2
20260506151600 58 111 0.0 2.0 0.00 0.00 0.00 58 1012.2
20260506144549 55 118 0.0 0.0 0.00 0.00 0.00 66 1012.3
20260506143045 51 101 0.0 1.0 0.00 0.00 0.00 77 1012.3
20260506141544 46 248 0.0 1.0 0.00 0.00 0.00 84 1012.4
20260506140040 43 248 0.0 0.0 0.00 0.00 0.00 88 1012.5
20260506134537 41 248 0.0 0.0 0.00 0.00 0.00 88 1012.4
20260506133046 39 248 0.0 0.0 0.00 0.00 0.00 88 1012.3
20260506131535 39 248 0.0 0.0 0.00 0.00 0.00 88 1012.1
20260506130033 39 248 0.0 0.0 0.00 0.00 0.00 87 1012.1
20260506124532 40 248 0.0 0.0 0.00 0.00 0.00 87 1012.1
20260506123030 40 248 0.0 0.0 0.00 0.00 0.00 87 1012.0
20260506121527 40 248 0.0 0.0 0.00 0.00 0.00 87 1011.9
20260506120047 40 248 0.0 0.0 0.00 0.00 0.00 86 1011.8
20260506114523 41 248 0.0 0.0 0.00 0.00 0.00 85 1011.7
20260506113021 41 248 0.0 0.0 0.00 0.00 0.00 85 1011.7
20260506111520 41 248 0.0 0.0 0.00 0.00 0.00 85 1011.5
20260506110018 42 248 0.0 0.0 0.00 0.00 0.00 84 1011.5
20260506104531 42 248 0.0 0.0 0.00 0.00 0.00 84 1011.5
20260506103034 41 248 0.0 0.0 0.00 0.00 0.00 83 1011.4
20260506101513 41 248 0.0 0.0 0.00 0.00 0.00 85 1011.2
20260506100011 41 248 0.0 0.0 0.00 0.00 0.00 84 1011.1
20260506094511 41 248 0.0 0.0 0.00 0.00 0.00 84 1011.1
20260506093017 41 248 0.0 0.0 0.00 0.00 0.00 83 1011.0
20260506091505 42 248 0.0 0.0 0.00 0.00 0.00 81 1010.8
20260506090001 42 248 0.0 0.0 0.00 0.00 0.00 81 1010.8
20260506084635 43 248 0.0 0.0 0.00 0.00 0.00 80 1010.7
20260506083057 43 248 0.0 0.0 0.00 0.00 0.00 80 1010.6
20260506081559 44 248 0.0 0.0 0.00 0.00 0.00 79 1010.4
20260506073048 45 248 0.0 0.0 0.00 0.00 0.00 78 1010.3
20260506071545 46 248 0.0 0.0 0.00 0.00 0.00 75 1010.3
20260506061541 49 248 0.0 0.0 0.00 0.00 0.00 72 1010.0
20260506044539 55 248 0.0 0.0 0.00 0.00 0.00 63 1009.4